CZ-6A DEB

Satellite information

Favourite Embed

Satellite Type and Status

DEBRISIN ORBIT

Key statistics

Satellite CZ-6A DEB at a glance.

Uptime

1073

Days in orbit

Revolutions

≈ 14.0

Per day

Orbit

SSO

Sun Synchronous Orbit

Inclination

98.9

Latest

Satellite identification and parameters

Extended collection of information and parameters for CZ-6A DEB.

Object identification

Identified? True

Debris? True

Object name: CZ-6A DEB

International designator: 2022-151ABU

Object number (NORAD): 56252

Object ID (CCSDS): 56252

Country: PEOPLES REPUBLIC OF CHINA (PRC)

Current information (Y/N): Y

RCS size: SMALL

Orbital parameters

Period: 102.545 minutes

Inclination: 98.856 deg

SMA: 7257.201 km

Apoapsis: 941.057 km

Periapsis: 817.076 km

RAAN: 279.6896 deg

Eccentricy: 0.00854188

Argument of periapsis: 308.3252 deg

Mean anomaly: 51.0258 deg

Mean motion: 14.04264759 rev/day

Mean motion (dot): 0.00001522 rev/day2

B* drag term: 0.00095445673 1/REarth

Two-line elements (TLE)

Creation date: Oct. 19, 2025, 2:20 a.m.

Reference frame: TEME

Reference center: EARTH

Epoch: Oct. 18, 2025, 9:46 p.m. UTC

TLE line 0: 0 CZ-6A DEB

TLE line 1: 1 56252U 22151ABU 25291.90734835 .00001522 00000-0 95446-3 0 9990

TLE line 2: 2 56252 98.8560 279.6896 0085419 308.3252 51.0258 14.04264759132408

Live tracking on map

Real-time ground track for satellite CZ-6A DEB.

In-orbit conjunctions

A list of the most updated potential collisions computed for object CZ-6A DEB.

Target Orbit TCA Probability of collision Miss distance Type
COSMOS 1275 DEB LEO 2025-08-31 11:17:51 0.0001230065 227.0 (m) DEBRIS
COSMOS 249 DEB MEO 2025-08-02 08:48:42 0.0001030649 317.0 (m) DEBRIS
THOR ABLESTAR DEB LEO 2024-10-06 15:09:22 0.0003307968 47.0 (m) DEBRIS
THORAD AGENA D DEB SSO 2024-06-12 21:46:17 0.0001106543 181.0 (m) DEBRIS

Associated space launch

Chinese satellite reported for atmospheric/ocean/environmental/spatial parameter research purposes, details TBD.

CZ-6A DEB was lifted into orbit during the mission ‘Long March 6A | Yunhai 3’, on board a Long March 6A space rocket.

The launch took place on Nov. 11, 2022, 10:52 p.m. from Launch Complex 9A.

For more information about the launch, click the button.

Launch to space Long March 6A | Yunhai 3
Long March 6A | Yunhai 3

Agency: N/A

Status: Launch Successful

Launch date: Nov. 11, 2022, 10:52 p.m. UTC

Rocket: Long March 6A

Launch pad: Launch Complex 9A

Location: Taiyuan Satellite Launch Center, People's Republic of China

...

Latest news about this satellite

There are no fresh news available about this satellite. Check back as we update our databases every day.


Newsletter sign-up

Weekly statistics, charts and insights to help you stay on top of the space industry.